EW4225 Weather Reports


Display with metric or nautical units.
time (UTC)temp
F
wind
direction
speed
MPH
gust
MPH
rain 1hr
in
rain 24hr
in
rain mn
in
humidity
%
barometer
mb
20180525134506 74 194 2.0 5.0 0.00 0.00 0.00 74 1013.2
20180525134006 73 181 2.0 5.0 0.00 0.00 0.00 74 1013.2
20180525133506 72 179 2.0 5.0 0.00 0.00 0.00 75 1013.3
20180525133007 72 193 3.0 9.0 0.00 0.00 0.00 75 1013.2
20180525132506 71 201 3.0 9.0 0.00 0.00 0.00 75 1013.2
20180525132006 70 209 3.0 8.0 0.00 0.00 0.00 75 1013.4
20180525131507 70 201 3.0 8.0 0.00 0.00 0.00 76 1013.3
20180525131006 70 199 2.0 6.0 0.00 0.00 0.00 76 1013.4
20180525130507 69 197 2.0 8.0 0.00 0.00 0.00 77 1013.4
20180525130007 68 191 3.0 8.0 0.00 0.00 0.00 77 1013.4
20180525125506 68 191 3.0 10.0 0.00 0.00 0.00 78 1013.4
20180525125006 67 190 3.0 10.0 0.00 0.00 0.00 80 1013.4
20180525124506 66 181 3.0 6.0 0.00 0.00 0.00 81 1013.4
20180525124007 66 185 3.0 6.0 0.00 0.00 0.00 81 1013.4
20180525123507 65 187 3.0 6.0 0.00 0.00 0.00 82 1013.4
20180525123006 65 181 3.0 8.0 0.00 0.00 0.00 84 1013.3
20180525122506 64 181 2.0 8.0 0.00 0.00 0.00 87 1013.3
20180525122006 63 187 2.0 5.0 0.00 0.00 0.00 88 1013.4
20180525121506 63 183 2.0 5.0 0.00 0.00 0.00 88 1013.3
20180525121006 62 174 1.0 5.0 0.00 0.00 0.00 89 1013.3
20180525120506 62 174 2.0 4.0 0.00 0.00 0.00 89 1013.3
20180525120007 61 171 1.0 4.0 0.00 0.00 0.00 90 1013.3
20180525115506 61 160 1.0 3.0 0.00 0.00 0.00 90 1013.3
20180525115006 60 118 1.0 2.0 0.00 0.00 0.00 90 1013.2
20180525114506 60 117 1.0 2.0 0.00 0.00 0.00 90 1013.3
20180525114006 60 109 0.0 2.0 0.00 0.00 0.00 90 1013.2
20180525113506 59 107 0.0 2.0 0.00 0.00 0.00 89 1013.3
20180525113007 59 0 0.0 0.0 0.00 0.00 0.00 89 1013.4
20180525112506 59 0 0.0 0.0 0.00 0.00 0.00 89 1013.4
20180525112007 59 87 0.0 1.0 0.00 0.00 0.00 88 1013.4
20180525111522 59 86 0.0 1.0 0.00 0.00 0.00 88 1013.3
20180525111006 59 87 0.0 1.0 0.00 0.00 0.00 87 1013.4
20180525110507 59 0 0.0 0.0 0.00 0.00 0.00 87 1013.4
20180525110007 59 0 0.0 0.0 0.00 0.00 0.00 86 1013.4
20180525105506 59 0 0.0 0.0 0.00 0.00 0.00 86 1013.4
20180525105006 59 0 0.0 0.0 0.00 0.00 0.00 86 1013.4
20180525104506 59 0 0.0 0.0 0.00 0.00 0.00 86 1013.4
20180525104007 59 0 0.0 0.0 0.00 0.00 0.00 86 1013.4
20180525103506 59 0 0.0 0.0 0.00 0.00 0.00 85 1013.4
20180525103007 59 0 0.0 0.0 0.00 0.00 0.00 85 1013.4
20180525102506 59 0 0.0 0.0 0.00 0.00 0.00 85 1013.3
20180525102006 59 0 0.0 0.0 0.00 0.00 0.00 85 1013.4
20180525101506 59 0 0.0 0.0 0.00 0.00 0.00 85 1013.4
20180525101006 59 0 0.0 0.0 0.00 0.00 0.00 84 1013.4
20180525100506 59 0 0.0 0.0 0.00 0.00 0.00 84 1013.5
20180525100006 59 0 0.0 0.0 0.00 0.00 0.00 84 1013.5
20180525095506 60 0 0.0 0.0 0.00 0.00 0.00 84 1013.7
20180525095006 60 0 0.0 0.0 0.00 0.00 0.00 84 1013.7
20180525094506 60 0 0.0 0.0 0.00 0.00 0.00 83 1013.8
20180525094006 60 0 0.0 0.0 0.00 0.00 0.00 83 1013.8
20180525093506 60 0 0.0 0.0 0.00 0.00 0.00 83 1013.8
20180525093006 60 0 0.0 0.0 0.00 0.00 0.00 83 1013.8
20180525092506 60 0 0.0 0.0 0.00 0.00 0.00 83 1014.0
20180525092006 60 0 0.0 0.0 0.00 0.00 0.00 83 1014.0
20180525091506 60 0 0.0 0.0 0.00 0.00 0.00 83 1014.0
20180525091006 60 0 0.0 0.0 0.00 0.00 0.00 83 1014.1
20180525090506 60 0 0.0 0.0 0.00 0.00 0.00 83 1014.1
20180525090006 60 0 0.0 0.0 0.00 0.00 0.00 83 1014.2
20180525085506 60 0 0.0 0.0 0.00 0.00 0.00 83 1014.2
20180525085006 61 0 0.0 0.0 0.00 0.00 0.00 83 1014.3
20180525084505 61 0 0.0 0.0 0.00 0.00 0.00 82 1014.3
20180525084005 61 0 0.0 0.0 0.00 0.00 0.00 82 1014.4
20180525083506 61 0 0.0 0.0 0.00 0.00 0.00 82 1014.3
20180525083006 61 0 0.0 0.0 0.00 0.00 0.00 82 1014.4
20180525082506 61 86 0.0 1.0 0.00 0.00 0.00 82 1014.5
20180525082007 61 86 0.0 1.0 0.00 0.00 0.00 81 1014.5
20180525081506 61 0 0.0 0.0 0.00 0.00 0.00 81 1014.5
20180525081006 61 0 0.0 0.0 0.00 0.00 0.00 81 1014.5
20180525080506 62 0 0.0 0.0 0.00 0.00 0.00 80 1014.5
20180525080006 62 0 0.0 0.0 0.00 0.00 0.00 80 1014.6
20180525075505 62 0 0.0 0.0 0.00 0.00 0.00 80 1014.6
20180525075006 62 0 0.0 0.0 0.00 0.00 0.00 80 1014.7
20180525074506 62 0 0.0 0.0 0.00 0.00 0.00 80 1014.7
20180525074005 62 0 0.0 0.0 0.00 0.00 0.00 80 1014.6
20180525073506 62 0 0.0 0.0 0.00 0.00 0.00 80 1014.6
20180525073006 62 0 0.0 0.0 0.00 0.00 0.00 80 1014.6
20180525072506 62 0 0.0 0.0 0.00 0.00 0.00 80 1014.7
20180525072005 62 86 0.0 1.0 0.00 0.00 0.00 80 1014.7
20180525071506 63 86 0.0 1.0 0.00 0.00 0.00 80 1014.7
20180525071006 63 0 0.0 0.0 0.00 0.00 0.00 80 1014.7
20180525070504 63 87 0.0 1.0 0.00 0.00 0.00 80 1014.8
20180525070007 63 86 0.0 1.0 0.00 0.00 0.00 80 1014.8
20180525065507 63 86 0.0 1.0 0.00 0.00 0.00 80 1014.8
20180525065008 63 0 0.0 0.0 0.00 0.00 0.00 79 1014.8
20180525064508 63 86 0.0 1.0 0.00 0.00 0.00 80 1014.8
20180525064008 64 86 0.0 1.0 0.00 0.00 0.00 80 1014.9
20180525063508 64 86 0.0 1.0 0.00 0.00 0.00 80 1015.0
20180525063008 64 87 0.0 1.0 0.00 0.00 0.00 79 1015.0
20180525062507 64 86 0.0 1.0 0.00 0.00 0.00 79 1015.2
20180525062007 64 86 0.0 1.0 0.00 0.00 0.00 79 1015.2
20180525061507 64 86 0.0 1.0 0.00 0.00 0.00 79 1015.3
20180525061007 64 86 0.0 1.0 0.00 0.00 0.00 78 1015.2
20180525060508 64 86 0.0 1.0 0.00 0.00 0.00 78 1015.4
20180525060008 65 0 0.0 0.0 0.00 0.00 0.00 78 1015.4
20180525055508 65 0 0.0 0.0 0.00 0.00 0.00 78 1015.4
20180525055007 65 0 0.0 0.0 0.00 0.00 0.00 78 1015.5
20180525054508 65 86 0.0 1.0 0.00 0.00 0.00 78 1015.6
20180525054007 65 86 0.0 1.0 0.00 0.00 0.00 77 1015.6
20180525053507 66 0 0.0 0.0 0.00 0.00 0.00 77 1015.8
20180525053007 66 86 0.0 1.0 0.00 0.00 0.00 77 1015.8
20180525052508 66 86 0.0 1.0 0.00 0.00 0.00 77 1015.9
20180525052007 66 86 0.0 1.0 0.00 0.00 0.00 76 1015.9
20180525051507 66 86 0.0 1.0 0.00 0.00 0.00 76 1015.8
20180525051007 66 86 0.0 1.0 0.00 0.00 0.00 75 1015.9
20180525050507 67 86 0.0 1.0 0.00 0.00 0.00 75 1015.9
20180525050015 67 86 0.0 1.0 0.00 0.00 0.00 75 1015.9
20180525045507 67 86 0.0 1.0 0.00 0.00 0.00 74 1015.8
20180525045007 68 0 0.0 0.0 0.00 0.00 0.00 73 1015.9
20180525044507 68 86 0.0 1.0 0.00 0.00 0.00 72 1015.8
20180525044007 68 86 0.0 1.0 0.00 0.00 0.00 72 1015.8
20180525043507 68 87 0.0 1.0 0.00 0.00 0.00 72 1015.8
20180525043007 68 86 0.0 1.0 0.00 0.00 0.00 71 1015.7
20180525042507 68 0 0.0 0.0 0.00 0.00 0.00 71 1015.8
20180525042007 69 0 0.0 0.0 0.00 0.00 0.00 70 1015.8
20180525041507 69 0 0.0 0.0 0.00 0.00 0.00 70 1015.7
20180525041007 69 0 0.0 0.0 0.00 0.00 0.00 70 1015.8
20180525040507 69 0 0.0 0.0 0.00 0.00 0.00 70 1015.7
20180525040007 69 86 0.0 2.0 0.00 0.00 0.00 70 1015.7
20180525035507 69 86 0.0 2.0 0.00 0.00 0.00 70 1015.7
20180525035007 69 86 0.0 2.0 0.00 0.00 0.00 70 1015.8
20180525034506 69 87 1.0 3.0 0.00 0.00 0.00 70 1015.6
20180525034007 69 87 1.0 3.0 0.00 0.00 0.00 70 1015.6
20180525033507 69 86 2.0 3.0 0.00 0.00 0.00 69 1015.6
20180525033007 69 82 1.0 3.0 0.00 0.00 0.00 69 1015.7
20180525032507 69 77 2.0 4.0 0.00 0.00 0.00 69 1015.7
20180525032007 70 90 1.0 4.0 0.00 0.00 0.00 68 1015.7
20180525031507 70 133 1.0 2.0 0.00 0.00 0.00 67 1015.8
20180525031007 70 154 0.0 1.0 0.00 0.00 0.00 68 1015.8
20180525030507 70 0 0.0 0.0 0.00 0.00 0.00 68 1015.7
20180525030007 70 0 0.0 0.0 0.00 0.00 0.00 67 1015.9
20180525025506 70 0 0.0 0.0 0.00 0.00 0.00 67 1015.9
20180525025006 71 0 0.0 0.0 0.00 0.00 0.00 66 1015.9
20180525024506 71 0 0.0 0.0 0.00 0.00 0.00 66 1015.9
20180525024006 71 0 0.0 0.0 0.00 0.00 0.00 66 1015.9
20180525023507 71 0 0.0 0.0 0.00 0.00 0.00 66 1015.8
20180525023006 72 0 0.0 0.0 0.00 0.00 0.00 65 1015.7
20180525022507 72 0 0.0 0.0 0.00 0.00 0.00 66 1015.7
20180525022006 72 0 0.0 0.0 0.00 0.00 0.00 65 1015.7
20180525021506 73 0 0.0 0.0 0.00 0.00 0.00 65 1015.7
20180525021006 73 0 0.0 0.0 0.00 0.00 0.00 64 1015.6
20180525020507 73 0 0.0 0.0 0.00 0.00 0.00 63 1015.6
20180525020007 74 0 0.0 0.0 0.00 0.00 0.00 63 1015.6
20180525015507 74 0 0.0 0.0 0.00 0.00 0.00 62 1015.6
20180525015006 74 0 0.0 0.0 0.00 0.00 0.00 62 1015.7
20180525014507 75 0 0.0 0.0 0.00 0.00 0.00 61 1015.6
20180525014007 76 0 0.0 0.0 0.00 0.00 0.00 60 1015.7
20180525013506 76 0 0.0 0.0 0.00 0.00 0.00 59 1015.6
20180525013007 76 0 0.0 0.0 0.00 0.00 0.00 59 1015.7
20180525012507 77 0 0.0 0.0 0.00 0.00 0.00 59 1015.7
20180525012006 77 0 0.0 0.0 0.00 0.00 0.00 57 1015.7
20180525011506 78 0 0.0 0.0 0.00 0.00 0.00 56 1015.7
20180525011007 78 0 0.0 0.0 0.00 0.00 0.00 55 1015.7
20180525010507 79 0 0.0 0.0 0.00 0.00 0.00 54 1015.7
20180525010007 80 154 0.0 1.0 0.00 0.00 0.00 54 1015.6
20180525005506 80 154 0.0 1.0 0.00 0.00 0.00 51 1015.6
20180525005006 80 154 0.0 1.0 0.00 0.00 0.00 51 1015.7
20180525004506 81 153 0.0 1.0 0.00 0.00 0.00 50 1015.7
20180525004007 81 154 0.0 1.0 0.00 0.00 0.00 49 1015.7
20180525003506 82 154 1.0 2.0 0.00 0.00 0.00 48 1015.7
20180525003006 82 155 1.0 3.0 0.00 0.00 0.00 48 1015.7
20180525002506 82 155 1.0 3.0 0.00 0.00 0.00 47 1015.7
20180525002006 82 158 1.0 4.0 0.00 0.00 0.00 46 1015.7
20180525001507 83 149 2.0 5.0 0.00 0.00 0.00 46 1015.6
20180525001007 83 137 2.0 5.0 0.00 0.00 0.00 46 1015.6
20180525000504 83 144 2.0 5.0 0.00 0.00 0.00 46 1015.7
20180525000006 83 156 2.0 5.0 0.00 0.00 0.00 46 1015.7
20180524235506 84 150 1.0 4.0 0.00 0.00 0.00 45 1015.8
20180524235006 84 124 1.0 4.0 0.00 0.00 0.00 45 1015.7
20180524234507 84 112 2.0 4.0 0.00 0.00 0.00 43 1015.8
20180524234006 84 108 2.0 4.0 0.00 0.00 0.00 43 1015.8
20180524233506 84 114 2.0 6.0 0.00 0.00 0.00 42 1015.8
20180524233007 84 118 2.0 6.0 0.00 0.00 0.00 43 1015.9
20180524232507 84 121 2.0 4.0 0.00 0.00 0.00 43 1016.0
20180524232007 84 127 2.0 4.0 0.00 0.00 0.00 42 1016.0
20180524231506 85 139 2.0 4.0 0.00 0.00 0.00 42 1016.1
20180524231007 85 149 2.0 4.0 0.00 0.00 0.00 43 1016.1
20180524230506 85 152 2.0 6.0 0.00 0.00 0.00 43 1016.2
20180524230007 85 178 3.0 6.0 0.00 0.00 0.00 42 1016.3
20180524225506 86 190 2.0 5.0 0.00 0.00 0.00 42 1016.3
20180524225006 86 150 3.0 9.0 0.00 0.00 0.00 43 1016.4
20180524224507 86 130 2.0 9.0 0.00 0.00 0.00 40 1016.4
20180524224006 86 140 2.0 6.0 0.00 0.00 0.00 41 1016.4
20180524223507 87 140 2.0 5.0 0.00 0.00 0.00 40 1016.6
20180524223006 87 135 2.0 5.0 0.00 0.00 0.00 39 1016.7
20180524222506 88 138 2.0 5.0 0.00 0.00 0.00 40 1016.8
20180524222005 88 137 1.0 5.0 0.00 0.00 0.00 40 1016.8
20180524221507 88 135 1.0 3.0 0.00 0.00 0.00 40 1016.8
20180524221006 88 134 2.0 5.0 0.00 0.00 0.00 39 1016.9
20180524220506 89 128 2.0 5.0 0.00 0.00 0.00 39 1016.9
20180524220006 89 129 2.0 6.0 0.00 0.00 0.00 39 1017.0
20180524215506 89 159 2.0 6.0 0.00 0.00 0.00 40 1017.0
20180524215007 89 156 2.0 5.0 0.00 0.00 0.00 40 1017.2
20180524214506 89 135 2.0 5.0 0.00 0.00 0.00 39 1017.3
20180524214006 89 135 2.0 5.0 0.00 0.00 0.00 38 1017.3
20180524213506 89 136 2.0 6.0 0.00 0.00 0.00 38 1017.3
20180524213006 89 146 3.0 8.0 0.00 0.00 0.00 38 1017.4
20180524212506 89 157 3.0 8.0 0.00 0.00 0.00 39 1017.4
20180524212006 89 151 3.0 8.0 0.00 0.00 0.00 38 1017.4
20180524211506 89 144 3.0 8.0 0.00 0.00 0.00 40 1017.5
20180524211006 88 142 4.0 11.0 0.00 0.00 0.00 39 1017.6
20180524210506 88 125 3.0 11.0 0.00 0.00 0.00 40 1017.7
20180524210006 89 115 3.0 4.0 0.00 0.00 0.00 39 1017.6
20180524205506 89 143 3.0 9.0 0.00 0.00 0.00 38 1017.7
20180524205005 89 137 3.0 9.0 0.00 0.00 0.00 38 1017.8
20180524204506 89 126 3.0 8.0 0.00 0.00 0.00 39 1017.8
20180524204006 89 143 3.0 8.0 0.00 0.00 0.00 42 1017.9
20180524203506 89 169 3.0 8.0 0.00 0.00 0.00 40 1018.0
20180524203005 88 194 3.0 9.0 0.00 0.00 0.00 40 1018.0
20180524202506 88 184 3.0 9.0 0.00 0.00 0.00 40 1018.1
20180524202005 88 183 3.0 8.0 0.00 0.00 0.00 39 1018.1
20180524201506 88 196 3.0 8.0 0.00 0.00 0.00 42 1018.3
20180524201005 88 184 3.0 8.0 0.00 0.00 0.00 42 1018.2
20180524200505 88 162 2.0 6.0 0.00 0.00 0.00 41 1018.3
20180524200006 88 156 3.0 6.0 0.00 0.00 0.00 38 1018.4
20180524195506 88 156 3.0 6.0 0.00 0.00 0.00 41 1018.6
20180524195006 88 170 3.0 8.0 0.00 0.00 0.00 42 1018.5
20180524194506 87 163 4.0 10.0 0.00 0.00 0.00 41 1018.6
20180524194006 87 162 4.0 10.0 0.00 0.00 0.00 44 1018.6
20180524193505 87 166 3.0 10.0 0.00 0.00 0.00 41 1018.7
20180524193006 87 189 3.0 6.0 0.00 0.00 0.00 42 1018.7
20180524192506 87 213 4.0 9.0 0.00 0.00 0.00 41 1018.8
20180524192006 87 203 4.0 10.0 0.00 0.00 0.00 42 1018.9
20180524191506 86 204 3.0 10.0 0.00 0.00 0.00 41 1018.9
20180524191006 86 219 3.0 6.0 0.00 0.00 0.00 44 1019.0
20180524190506 86 217 3.0 6.0 0.00 0.00 0.00 42 1019.0
20180524190006 86 214 3.0 10.0 0.00 0.00 0.00 43 1019.0
20180524185506 86 200 4.0 10.0 0.00 0.00 0.00 41 1019.0
20180524185005 86 178 4.0 9.0 0.00 0.00 0.00 42 1019.0
20180524184505 86 179 3.0 6.0 0.00 0.00 0.00 43 1019.1
20180524184006 86 200 3.0 9.0 0.00 0.00 0.00 45 1019.1
20180524183505 86 194 3.0 9.0 0.00 0.00 0.00 43 1019.2
20180524183005 86 198 3.0 9.0 0.00 0.00 0.00 43 1019.2
20180524182506 86 209 3.0 9.0 0.00 0.00 0.00 45 1019.4
20180524182005 86 230 3.0 11.0 0.00 0.00 0.00 44 1019.4
20180524181505 86 208 4.0 13.0 0.00 0.00 0.00 43 1019.5
20180524181006 86 184 3.0 13.0 0.00 0.00 0.00 44 1019.5
20180524180505 86 190 3.0 10.0 0.00 0.00 0.00 43 1019.5
20180524180006 86 196 4.0 10.0 0.00 0.00 0.00 44 1019.6
20180524175505 86 177 4.0 10.0 0.00 0.00 0.00 43 1019.6
20180524175006 86 169 4.0 11.0 0.00 0.00 0.00 45 1019.6
20180524174506 86 192 4.0 11.0 0.00 0.00 0.00 44 1019.7
20180524174006 86 191 4.0 12.0 0.00 0.00 0.00 45 1019.7
20180524173506 86 178 4.0 12.0 0.00 0.00 0.00 45 1019.7
20180524173006 85 172 5.0 10.0 0.00 0.00 0.00 46 1019.8
20180524172506 85 164 4.0 8.0 0.00 0.00 0.00 46 1019.9
20180524172006 85 157 4.0 10.0 0.00 0.00 0.00 45 1020.0
20180524171505 85 164 3.0 10.0 0.00 0.00 0.00 46 1020.1
20180524171005 85 188 3.0 8.0 0.00 0.00 0.00 46 1020.2
20180524170505 85 170 3.0 9.0 0.00 0.00 0.00 47 1020.4
20180524170005 85 166 4.0 9.0 0.00 0.00 0.00 48 1020.4
20180524165505 84 165 4.0 11.0 0.00 0.00 0.00 50 1020.5
20180524165005 84 149 4.0 11.0 0.00 0.00 0.00 48 1020.6
20180524164506 84 154 4.0 11.0 0.00 0.00 0.00 49 1020.6
20180524164005 84 157 4.0 11.0 0.00 0.00 0.00 50 1020.6
20180524163505 83 168 4.0 11.0 0.00 0.00 0.00 48 1020.7
20180524163006 83 189 5.0 11.0 0.00 0.00 0.00 50 1020.7
20180524162505 83 192 5.0 10.0 0.00 0.00 0.00 47 1020.8
20180524162006 83 174 5.0 12.0 0.00 0.00 0.00 48 1020.9
20180524161505 83 154 5.0 12.0 0.00 0.00 0.00 49 1020.9
20180524161005 83 150 4.0 12.0 0.00 0.00 0.00 50 1020.8
20180524160505 83 151 4.0 12.0 0.00 0.00 0.00 51 1020.8
20180524160005 83 167 5.0 11.0 0.00 0.00 0.00 50 1020.8
20180524155506 82 171 4.0 13.0 0.00 0.00 0.00 50 1020.9
20180524155005 82 148 4.0 13.0 0.00 0.00 0.00 51 1020.8
20180524154505 82 146 4.0 13.0 0.00 0.00 0.00 51 1020.9
20180524154005 82 156 4.0 12.0 0.00 0.00 0.00 53 1020.9
20180524153505 82 152 4.0 9.0 0.00 0.00 0.00 55 1021.0
20180524153005 81 154 4.0 12.0 0.00 0.00 0.00 54 1020.9
20180524152506 81 170 5.0 13.0 0.00 0.00 0.00 54 1020.9
20180524152005 81 176 4.0 13.0 0.00 0.00 0.00 53 1021.0
20180524151505 80 166 4.0 11.0 0.00 0.00 0.00 54 1021.0
20180524151005 80 160 4.0 11.0 0.00 0.00 0.00 56 1021.1
20180524150505 80 153 3.0 11.0 0.00 0.00 0.00 55 1021.1
20180524150005 80 136 3.0 10.0 0.00 0.00 0.00 55 1021.1
20180524145505 79 149 4.0 10.0 0.00 0.00 0.00 57 1021.1
20180524145005 79 171 3.0 8.0 0.00 0.00 0.00 57 1021.2
20180524144505 78 181 3.0 8.0 0.00 0.00 0.00 55 1021.2
20180524144005 78 167 3.0 9.0 0.00 0.00 0.00 57 1021.4
20180524143505 78 169 3.0 9.0 0.00 0.00 0.00 58 1021.4
20180524143006 77 172 3.0 9.0 0.00 0.00 0.00 57 1021.4
20180524142505 77 158 3.0 9.0 0.00 0.00 0.00 59 1021.4
20180524142006 77 172 2.0 9.0 0.00 0.00 0.00 62 1021.4
20180524141505 76 186 3.0 11.0 0.00 0.00 0.00 59 1021.5
20180524141006 76 167 3.0 11.0 0.00 0.00 0.00 60 1021.5
20180524140506 75 154 3.0 10.0 0.00 0.00 0.00 63 1021.5
20180524140005 74 155 3.0 8.0 0.00 0.00 0.00 64 1021.4
20180524135506 74 149 3.0 9.0 0.00 0.00 0.00 64 1021.4
20180524135006 73 157 3.0 9.0 0.00 0.00 0.00 65 1021.6